Location: Lone Pine Community Mobile Home Park
(42.7367°N, 73.8567°W)
Time: 06:00:47
(UTC+00:00)

NOSS 3-3 (C) - Pass Details

Date: 29 October 2020
Orbit: 825 x 1387 km, 63.4° (Epoch: 22 November)

Event Time Altitude Azimuth Distance (km) Brightness Sun altitude
Rises 23:24:46 0° 217° (SW) 3,391 7.4 -17.7°
Reaches altitude 10° 23:27:07 10° 219° (SW) 2,495 6.7 -18.1°
Maximum altitude 23:32:53 81° 307° (NW) 941 3.9 -19.2°
Enters shadow 23:38:38 14° 34° (NE) 2,525 5.8 -20.2°
